[[{"header":{"parameterUnit":"m.s-1","parameterCategory":1,"la1":30.2991,"la2":30.254,"lo1":-89.0895,"lo2":-89.0444,"dy":0.0017,"dx":0.0017,"nx":28,"ny":28,"refTime":"2024-05-29T21:00:00:Z","depth":0,"parameterNumber":2,"parameterNumberName":"U-component_of_WINDS"},"data":[0,0,0,0,0,0,0,0,0,0,0,0,0,0,0,0,0,0,0,0,0,0,0,0,0,0,0,0,0,0,0,0,0,0,0,0,0,0,0,0,0,0,0,0,0,0,0,0,0,0,0,0,0,0,0,0,0,0,-2.9998,-2.9997,0,-2.991,-2.9909,-2.9908,-2.98,-2.9798,-2.9797,-2.9795,-2.9707,-2.9706,-2.9705,0,0,0,0,0,0,0,0,0,0,0,0,0,-3.0077,-3.0076,-2.9998,-2.9997,-2.9996,-2.991,-2.9909,-2.9908,-2.98,-2.9798,-2.9796,-2.9794,-2.9707,-2.9706,-2.9705,0,0,0,0,0,0,0,0,0,0,0,0,0,-3.0021,-3.0075,-2.9998,-2.9932,-2.9925,-2.991,-2.9909,-2.9907,-2.9801,-2.9798,-2.9796,-2.9793,-2.9707,-2.9706,-2.9705,-2.9749,0,0,-2.9701,-2.9701,0,0,0,0,0,0,0,0,-3.0024,-3.0018,-2.9943,-2.9936,-2.9929,-2.9863,-2.9904,-2.9854,-2.9802,-2.9848,-2.9795,-2.9792,-2.9761,-2.9755,-2.9744,-2.9744,-2.9741,-2.9701,-2.9701,-2.97,-2.97,0,0,0,0,0,0,0,-3.0028,-3.0021,-2.9963,-2.9942,-2.9933,-2.9908,-2.9897,-2.9894,-2.982,-2.9844,-2.9836,-2.9827,-2.9757,-2.9746,-2.9741,-2.9739,-2.9701,-2.97,-2.97,-2.9699,-2.9775,-2.9777,0,0,0,0,0,0,-3.0042,-3.0025,-2.9966,-2.996,-2.9971,-2.9908,-2.9896,-2.9887,-2.982,-2.9807,-2.9829,-2.9822,-2.9749,-2.9743,-2.9738,-2.9787,-2.97,-2.9699,-2.9698,-2.9772,-2.9775,-2.9778,0,0,0,0,0,0,-3.0044,-3.0037,-2.9969,-2.9991,-2.998,-2.991,-2.99,-2.9887,-2.9875,-2.9808,-2.9795,-2.9831,-2.9747,-2.974,-2.9747,-2.9782,-2.9698,-2.9697,-2.9769,-2.9773,-2.9777,-2.9884,0,0,0,0,0,0,-3.0047,-3.0039,-3.0054,-2.9992,-2.9979,-2.998,-2.9902,-2.9887,-2.9874,-2.9864,-2.9807,-2.9795,-2.9744,-2.975,-2.9746,-2.9779,-2.9696,-2.9765,-2.9771,-2.9776,-2.9877,-2.9891,-2.9904,0,0,0,0,0,-3.005,-3.0087,-3.0055,-3.0048,-2.9996,-2.9982,-2.9975,-2.9915,-2.9877,-2.9892,-2.985,-2.9797,-2.9779,-2.9752,-2.9747,-2.978,-2.9763,-2.9769,-2.9775,-2.9871,-2.9889,-2.9903,0,0,0,0,0,0,-3.0154,-3.0077,-3.0041,-3.0059,-3.0028,-2.9964,-2.998,-2.9935,-2.9914,-2.9905,-2.9832,-2.9821,-2.9838,-2.9809,-2.978,-2.982,-2.9764,-2.9769,-2.9838,-2.9854,-2.9867,-2.9874,-2.9696,0,0,0,0,0,-3.0179,-3.0173,-3.0106,-3.0129,-3.0115,-3.0051,-3.0042,-2.9999,-2.9964,-2.995,-2.9908,-2.9877,-2.9864,-2.9858,-2.9842,-2.9873,-2.986,-2.9893,-2.9907,-2.9918,-2.9924,-2.9941,-2.9956,-2.9798,-2.9798,-2.9798,0,0,-3.0231,-3.0188,-3.0189,-3.0149,-3.012,-3.0117,-3.004,-3.0039,-3.0037,-2.995,-2.9956,-2.9924,-2.9885,-2.9905,-2.9912,-2.9882,-2.9965,-2.9926,-2.9935,-2.9934,-2.9949,-2.9964,-2.9977,-2.9802,-2.9802,-2.9801,0,0,-3.0324,-3.029,-3.0306,-3.0279,-3.0236,-3.0194,-3.0198,-3.0141,-3.0117,-3.0122,-3.0058,-3.0054,-3.0033,-3.0009,-2.9994,-3.0082,-3.0034,-3.0079,-3.0148,-3.0165,-3.0178,-3.0189,-3.0222,-3.0235,-3.0085,-3.0085,-3.0085,0,-3.0393,-3.0385,-3.0321,-3.0325,-3.031,-3.0233,-3.025,-3.0227,-3.0181,-3.0174,-3.0141,-3.0116,-3.0083,-3.0098,-3.012,-3.011,-3.0114,-3.0085,-3.0181,-3.0191,-3.02,-3.0232,-3.0244,-3.0091,-3.009,-3.0089,-3.0089,0,-3.0474,-3.047,-3.0489,-3.0448,-3.0435,-3.0446,-3.0385,-3.0381,-3.034,-3.0302,-3.0309,-3.0268,-3.0244,-3.0245,-3.0204,-3.0255,-3.0238,-3.0194,-3.0136,-3.0222,-3.0251,-3.0262,-3.0099,-3.0097,-3.0095,-3.0094,0,0,-3.0628,-3.0554,-3.0562,-3.0544,-3.0492,-3.0488,-3.0497,-3.0474,-3.0473,-3.0445,-3.0452,-3.0438,-3.0398,-3.0381,-3.0338,-3.0353,-3.0429,-3.0307,-3.0305,-3.0333,-3.0486,-3.0521,-3.0535,-3.0397,-3.0399,-3.04,-3.049,0,-3.0713,-3.0723,-3.0667,-3.0692,-3.0689,-3.0617,-3.0625,-3.0595,-3.0561,-3.0554,-3.0516,-3.0508,-3.0455,-3.0445,-3.0457,-3.0417,-3.0459,-3.041,-3.0404,-3.0405,-3.0418,-3.055,-3.0585,-3.0672,-3.0501,-3.0502,-3.0504,0,-3.0812,-3.0791,-3.0817,-3.0767,-3.0763,-3.0771,-3.0748,-3.0742,-3.0708,-3.0682,-3.0665,-3.0616,-3.0623,-3.0567,-3.0578,-3.0546,-3.054,-3.0521,-3.0523,-3.0521,-3.046,-3.0553,-3.0697,-3.0711,-3.052,-3.0519,-3.0518,0,-3.0925,-3.0903,-3.0916,-3.0902,-3.0844,-3.0852,-3.0828,-3.0792,-3.0783,-3.0763,-3.0757,-3.0738,-3.0728,-3.0716,-3.0663,-3.0627,-3.0681,-3.062,-3.0661,-3.0663,-3.0676,-3.0676,-3.0824,-3.0671,-3.0671,-3.0671,-3.067,0,-3.1026,-3.1044,-3.0966,-3.0974,-3.0994,-3.0931,-3.0953,-3.0922,-3.0891,-3.0894,-3.083,-3.0834,-3.0764,-3.0761,-3.072,-3.0737,-3.0732,-3.0713,-3.0702,-3.0719,-3.0722,-3.0715,-3.0708,-3.0674,-3.0673,-3.0673,-3.0672,0,-3.1154,-3.1102,-3.1112,-3.1057,-3.1044,-3.1062,-3.1015,-3.1022,-3.0985,-3.0989,-3.0986,-3.0928,-3.0921,-3.0868,-3.0849,-3.0822,-3.0854,-3.0831,-3.0866,-3.0859,-3.0904,-3.0901,-3.1053,-3.1071,-3.0906,-3.0908,-3.0909,0,-3.1222,-3.1236,-3.1183,-3.118,-3.116,-3.1156,-3.1147,-3.1086,-3.108,-3.1045,-3.1056,-3.1044,-3.1032,-3.1025,-3.0982,-3.0968,-3.0945,-3.1,-3.0943,-3.0961,-3.0948,-3.0949,-3.0951,-3.1012,-3.1014,-3.1016,-3.1017,0,-3.135,-3.1324,-3.1313,-3.1295,-3.1287,-3.1269,-3.1248,-3.125,-3.1183,-3.118,-3.1172,-3.1163,-3.1145,-3.1135,-3.1115,-3.1091,-3.1045,-3.1036,-3.1045,-3.1062,-3.1083,-3.1075,-3.0901,-3.1032,-3.1031,-3.1029,-3.1029,-3.1028,-3.1451,-3.1461,-3.1426,-3.1418,-3.1396,-3.1378,-3.1382,-3.1347,-3.1339,-3.132,-3.1285,-3.1284,-3.1253,-3.122,-3.1202,-3.1201,-3.1173,-3.1186,-3.1189,-3.1194,-3.1204,-3.1083,-3.1197,-3.1197,-3.1196,-3.1196,-3.1195,0,-3.1577,-3.1552,-3.1544,-3.1518,-3.1512,-3.1468,-3.1443,-3.1442,-3.1441,-3.1416,-3.1406,-3.14,-3.1391,-3.1348,-3.1335,-3.1343,-3.1322,-3.1342,-3.1341,-3.1337,-3.1229,-3.1223,-3.136,-3.136,-3.136,-3.136,-3.136,-3.136,-3.1641,-3.1656,-3.1627,-3.1632,-3.1606,-3.1605,-3.1595,-3.158,-3.156,-3.1555,-3.1548,-3.152,-3.1489,-3.1474,-3.1465,-3.1453,-3.1452,-3.148,-3.1461,-3.136,-3.1345,-3.133,-3.1324,-3.148,-3.148,-3.157,-3.1571,-3.1572]},{"header":{"parameterUnit":"m.s-1","parameterCategory":1,"la1":30.2991,"la2":30.254,"lo1":-89.0895,"lo2":-89.0444,"dy":0.0017,"dx":0.0017,"nx":28,"ny":28,"refTime":"2024-05-29T21:00:00:Z","depth":0,"parameterNumber":3,"parameterNumberName":"V-component_of_WINDS"},"data":[0,0,0,0,0,0,0,0,0,0,0,0,0,0,0,0,0,0,0,0,0,0,0,0,0,0,0,0,0,0,0,0,0,0,0,0,0,0,0,0,0,0,0,0,0,0,0,0,0,0,0,0,0,0,0,0,0,0,0.6077,0.6077,0,0.6039,0.6039,0.6039,0.598,0.5979,0.5978,0.5977,0.5939,0.5939,0.5939,0,0,0,0,0,0,0,0,0,0,0,0,0,0.6101,0.6101,0.6077,0.6077,0.6077,0.6039,0.6039,0.6038,0.598,0.5979,0.5978,0.5977,0.5939,0.5939,0.5939,0,0,0,0,0,0,0,0,0,0,0,0,0,0.608,0.6101,0.6078,0.6043,0.604,0.604,0.6039,0.6038,0.5981,0.5979,0.5977,0.5976,0.5939,0.5939,0.5939,0.597,0,0,0.5939,0.5939,0,0,0,0,0,0,0,0,0.6081,0.6079,0.6049,0.6045,0.6042,0.6013,0.6034,0.6016,0.5981,0.6003,0.5977,0.5975,0.5965,0.5963,0.5959,0.5969,0.5967,0.5939,0.5939,0.5939,0.5939,0,0,0,0,0,0,0,0.6083,0.6081,0.6062,0.6048,0.6044,0.603,0.6025,0.603,0.5993,0.6001,0.5997,0.5993,0.5963,0.5959,0.5958,0.5966,0.5939,0.5939,0.5939,0.5939,0.5999,0.6,0,0,0,0,0,0,0.6089,0.6082,0.6064,0.6061,0.6058,0.6031,0.6025,0.6024,0.5993,0.5987,0.5994,0.599,0.596,0.5958,0.5956,0.5989,0.5939,0.5939,0.5939,0.5997,0.5999,0.6001,0,0,0,0,0,0,0.609,0.6088,0.6065,0.6071,0.6067,0.6032,0.6031,0.6024,0.602,0.5988,0.5981,0.5997,0.5959,0.5957,0.5967,0.5987,0.5939,0.5939,0.5995,0.5998,0.6,0.6056,0,0,0,0,0,0,0.6091,0.6089,0.61,0.6071,0.6066,0.6076,0.6032,0.6024,0.602,0.6014,0.5989,0.5983,0.5958,0.5967,0.5967,0.5986,0.5939,0.5993,0.5996,0.5999,0.6052,0.606,0.6067,0,0,0,0,0,0.6092,0.6117,0.61,0.6099,0.6079,0.6077,0.6074,0.6044,0.6022,0.6033,0.6012,0.5984,0.5986,0.5969,0.5968,0.5988,0.5992,0.5995,0.5999,0.6049,0.6059,0.6067,0,0,0,0,0,0,0.6149,0.6113,0.6094,0.6111,0.6098,0.6067,0.608,0.6055,0.6048,0.6043,0.6006,0.6001,0.6016,0.6004,0.5985,0.6016,0.5984,0.5988,0.6023,0.6032,0.6039,0.604,0.5939,0,0,0,0,0,0.6164,0.6165,0.6134,0.6151,0.6146,0.6114,0.6112,0.609,0.6075,0.6069,0.6049,0.6036,0.6034,0.6033,0.6029,0.6052,0.6044,0.6065,0.6072,0.6078,0.6081,0.6091,0.6099,0.6013,0.6013,0.6013,0,0,0.6194,0.6174,0.6177,0.6162,0.6149,0.6151,0.611,0.6114,0.6115,0.607,0.6077,0.6063,0.6046,0.6063,0.6069,0.6052,0.6103,0.6083,0.6088,0.6087,0.6095,0.6103,0.6111,0.6015,0.6015,0.6014,0,0,0.6249,0.6235,0.6247,0.6236,0.6217,0.6196,0.6199,0.6173,0.6161,0.6169,0.6135,0.6137,0.6133,0.6122,0.6116,0.6169,0.6142,0.6169,0.6206,0.6216,0.6223,0.6228,0.6245,0.6252,0.6172,0.6172,0.6172,0,0.6288,0.6289,0.6257,0.6263,0.6257,0.6217,0.623,0.622,0.6201,0.6198,0.6181,0.6175,0.6161,0.6174,0.6187,0.6184,0.6186,0.617,0.6224,0.623,0.6235,0.625,0.6257,0.6175,0.6175,0.6175,0.6174,0,0.6337,0.6339,0.6352,0.6333,0.633,0.6339,0.6309,0.631,0.6289,0.627,0.6278,0.626,0.6251,0.6254,0.6233,0.6264,0.6254,0.6231,0.6198,0.6247,0.626,0.6266,0.618,0.6179,0.6178,0.6177,0,0,0.6424,0.639,0.6394,0.6385,0.6363,0.6363,0.6372,0.6362,0.6363,0.6352,0.6357,0.6356,0.6334,0.6328,0.6306,0.6316,0.6357,0.6292,0.6291,0.6302,0.6387,0.6402,0.6409,0.634,0.6341,0.6342,0.6387,0,0.6472,0.6482,0.6455,0.6472,0.6473,0.6436,0.6443,0.643,0.6413,0.6412,0.6394,0.6393,0.6366,0.6361,0.6369,0.635,0.6373,0.6347,0.6343,0.6344,0.6345,0.6417,0.6433,0.6476,0.6393,0.6394,0.6395,0,0.6529,0.652,0.6537,0.6513,0.6512,0.6519,0.6508,0.6508,0.6493,0.648,0.6473,0.6449,0.6455,0.6426,0.6434,0.6417,0.6415,0.6405,0.6406,0.6402,0.637,0.6413,0.649,0.6495,0.6403,0.6403,0.6402,0,0.6587,0.658,0.6589,0.6583,0.6556,0.6561,0.6551,0.6534,0.6531,0.6522,0.6519,0.6513,0.6508,0.6504,0.6478,0.6459,0.6488,0.6457,0.6477,0.6477,0.6482,0.6481,0.6557,0.6486,0.6485,0.6485,0.6485,0,0.6641,0.6653,0.6615,0.662,0.6632,0.6602,0.6614,0.66,0.6586,0.6588,0.6557,0.656,0.6527,0.6526,0.6507,0.6515,0.6514,0.6504,0.6498,0.6505,0.6506,0.65,0.6495,0.6487,0.6487,0.6486,0.6486,0,0.6707,0.6682,0.6689,0.6664,0.6658,0.6667,0.6645,0.6649,0.6632,0.6635,0.6634,0.6606,0.6604,0.6579,0.6571,0.6558,0.6573,0.6563,0.6578,0.6573,0.6593,0.6591,0.6666,0.6673,0.66,0.6601,0.6601,0,0.6742,0.675,0.6725,0.6724,0.6714,0.6714,0.671,0.6681,0.6678,0.6662,0.6668,0.6664,0.6657,0.6656,0.6635,0.6629,0.6617,0.6644,0.6615,0.6622,0.6614,0.6613,0.6613,0.6648,0.6649,0.665,0.6651,0,0.6806,0.6793,0.6789,0.678,0.6777,0.6769,0.6759,0.676,0.6729,0.6727,0.6724,0.672,0.6712,0.6707,0.6698,0.6687,0.6663,0.666,0.6664,0.667,0.6677,0.6671,0.6591,0.6658,0.6657,0.6657,0.6656,0.6656,0.6855,0.686,0.6843,0.6839,0.6829,0.6821,0.6823,0.6806,0.6803,0.6794,0.6778,0.6777,0.6762,0.6747,0.6739,0.6738,0.6724,0.673,0.6731,0.6732,0.6735,0.668,0.6736,0.6736,0.6736,0.6736,0.6735,0,0.6915,0.6903,0.69,0.6887,0.6884,0.6863,0.6852,0.685,0.685,0.6839,0.6834,0.683,0.6826,0.6806,0.6799,0.6802,0.6791,0.6801,0.6799,0.6797,0.6749,0.6745,0.681,0.681,0.681,0.681,0.681,0.681,0.6945,0.6952,0.6938,0.694,0.6928,0.6926,0.6921,0.6914,0.6904,0.6901,0.6897,0.6885,0.687,0.6862,0.6857,0.6851,0.6849,0.6862,0.6853,0.6808,0.68,0.6793,0.6789,0.6863,0.6863,0.69,0.6901,0.6901]}]]